Location: Possagno
(45.8500°N, 11.8667°E)
Time: 20:00:55
(UTC+00:00)

In-Cosmos 22 Rocket - Pass Details

Date: 07 June 2020
Orbit: 790 x 888 km, 81.2° (Epoch: 04 July)

Event Time Altitude Azimuth Distance (km) Brightness Sun altitude
Exits shadow 01:31:05 18° 190° (S) 1,938 5.5 -14.4°
Maximum altitude 01:35:18 89° 281° (W) 840 4.2 -14.0°
Drops below altitude 10° 01:40:48 10° 11° (N) 2,421 7.7 -13.5°
Sets 01:43:10 0° 11° (NNE) 3,344 8.6 -13.2°
